Hourly Data Report for May 19, 2012

All times are specified in Local Standard Time (LST). Add 1 hour to adjust for Daylight Saving Time where and when it is observed.

ST. JOHN'S INTL A
NEWFOUNDLAND

47°37'07.000" N
52°45'09.000" W
140.50 m
8403505
71801
YYT

Download Data

Hourly Data (May 2012)
Hourly Data Report for May 19, 2012
Temp Definition
°C
Dew Point Temp Definition
°C
Rel Hum Definition
%
Wind Dir Definition
10's deg

Wind Spd Definition
km/h
Visibility Definition
km
Stn Press Definition
kPa
Hmdx Definition


Wind Chill Definition


Weather Definition


TIME
00:30 Legend Double Dagger 5.4 1.5 76 26 30 10.0 99.87     LegendNANA
01:30 Legend Double Dagger 6.0 1.5 73 26 38 10.0 99.92     LegendNANA
02:30 Legend Double Dagger 6.0 1.4 72 26 31 10.0 99.95     Clear
03:30 Legend Double Dagger 6.0 1.2 71 25 33 10.0 99.92     LegendNANA
04:30 Legend Double Dagger 6.6 0.7 66 25 38 10.0 99.95     LegendNANA
05:30 Legend Double Dagger 7.5 1.4 65 25 29 10.0 99.95     Mainly Clear
06:30 Legend Double Dagger 9.7 1.9 58 24 27 10.0 99.95     LegendNANA
07:30 Legend Double Dagger 12.2 1.3 47 24 31 10.0 99.89     LegendNANA
08:30 Legend Double Dagger 13.1 4.8 57 24 35 10.0 99.79     Mainly Clear
09:30 Legend Double Dagger 13.9 5.8 58 25 40 10.0 99.75     LegendNANA
10:30 Legend Double Dagger 15.3 6.1 54 24 39 10.0 99.70     LegendNANA
11:30 Legend Double Dagger 16.9 5.3 46 25 44 10.0 99.61     Mainly Clear
12:30 Legend Double Dagger 17.5 5.2 44 25 48 10.0 99.57     LegendNANA
13:30 Legend Double Dagger 16.9 5.0 45 25 44 10.0 99.55     LegendNANA
14:30 Legend Double Dagger 16.8 3.6 41 26 50 10.0 99.50     Mainly Clear
15:30 Legend Double Dagger 16.2 3.4 42 26 46 10.0 99.48     LegendNANA
16:30 Legend Double Dagger 15.5 2.7 42 26 51 10.0 99.47     LegendNANA
17:30 Legend Double Dagger 14.7 1.3 40 26 50 10.0 99.47     Mainly Clear
18:30 Legend Double Dagger 13.1 0.9 43 26 42 10.0 99.47     LegendNANA
19:30 Legend Double Dagger 11.4 1.4 50 27 35 10.0 99.53     LegendNANA
20:30 Legend Double Dagger 10.2 0.8 52 26 42 10.0 99.56     Mainly Clear
21:30 Legend Double Dagger 8.5 0.7 58 26 34 10.0 99.60     LegendNANA
22:30 Legend Double Dagger 7.2 1.3 66 28 28 10.0 99.66     LegendNANA
23:30 Legend Double Dagger 6.3 1.3 70 27 27 10.0 99.67     Clear

Notes on Data Quality.

Legend

  • E = Estimated
  • M = Missing
  • NA = Not Available
  • ‡ = Partner data that is not subject to review by the National Climate Archives
Date modified: